Find Starlink 11253

NORAD ID: 60935 Int'l Des: 2024-155 Owner: SPXS Country: US Constellation: starlink operational
LEOCIRCULAR

Live-Position

3D-Globus wird geladen...

Über Starlink 11253

Beschreibung wird geladen...

Nächste Überflüge

Passes for default location (London). Set your location on the main map for personalized predictions.

Höhenverlauf

Loading altitude history...

Zweizeiliger Elementsatz

1 60935U 24155M 26128.19111299 .00002775 00000-0 27759-4 0 9997
2 60935 53.1585 48.2289 0000730 141.3685 218.7386 15.69701224 97742
Epoch: 8. Mai 2026 • Age: 4 hours

Aktueller Status

Höhe 368.3 km
Geschwindigkeit 7.69 km/s
Subsatellitenpunkt -27.18°S, 23.26°E
Startdatum 31. Aug. 2024
Alter 1.6 years
Typ internet

Technische Details

Klassifizierung Payload
Masse 960.00 kg
Trockenmasse 910.00 kg
Gesamtmasse 960.00 kg
Länge 0.30 m
Durchmesser 4.10 m
Spannweite 29.00 m
Form Box + pan
Hersteller SPXS
Bus-Typ Starlink V2MD
Phasenstatus In Orbit
Besitzer/Staat SPXS/US

Most Searched